Location: Newark
(49.8348°N, 24.0280°E)
Time: 15:21:03
(UTC+00:00)

Transit 2A - Pass Details

Date: 21 January 2020
Orbit: 599 x 959 km, 66.7° (Epoch: 25 February)

Event Time Altitude Azimuth Distance (km) Brightness Sun altitude
Rises 21:53:29 0° 277° (W) 2,854 - -58.9°
Reaches altitude 10° 21:56:44 10° 303° (WNW) 1,949 - -59.1°
Maximum altitude 21:59:05 14° 336° (NNW) 1,701 - -59.2°
Drops below altitude 10° 22:01:27 10° 9° (N) 1,977 - -59.3°
Sets 22:04:48 0° 35° (NE) 2,926 - -59.4°
